Location: Charbonni�res
(45.9952°N, 2.9982°E)
Time: 17:53:26
(UTC+00:00)

Cosmos 1782 - Pass Details

Date: 29 November 2020
Orbit: 537 x 551 km, 82.5° (Epoch: 23 January)

Event Time Altitude Azimuth Distance (km) Brightness Sun altitude
Exits shadow 05:50:27 21° 291° (WNW) 1,285 4.0 -13.0°
Maximum altitude 05:51:21 22° 272° (W) 1,223 4.0 -12.8°
Drops below altitude 10° 05:54:29 10° 220° (SW) 1,825 5.3 -12.3°
Sets 05:56:59 0° 205° (SSW) 2,714 6.3 -11.9°
